Regional Weather Roundup
Issued by NWS Wakefield, VA

Home | Current Version | Previous Version | Text Only | Print | Product List | Glossary On
Versions: 1 2 3 4 5 6 7 8 9 10 11 12 13 14 15 16 17 18 19 20 21 22 23 24 25 26 27 28 29 30 31 32 33 34 35 36 37 38 39 40 41 42 43 44 45 46 47 48 49 50
000
ASUS41 KAKQ 311410
RWRAKQ

REGIONAL WEATHER ROUNDUP
NATIONAL WEATHER SERVICE WAKEFIELD VA
1000 AM EDT THU JUL 31 2014

Note: "fair" indicates few or no clouds below 12,000 feet with no
significant weather and/or obstructions to visibility. * = Denotes
station may not report precipitation (e.g., rain,snow,etc.),
thunder or fog.

VAZ042-051-052>054-056-311500-
NORTHERN VIRGINIA

CITY           SKY/WX    TMP DP  RH WIND       PRES   REMARKS
WASH NATIONAL  MOSUNNY   77  60  55 S7        30.12R
DULLES         MOSUNNY   72  57  59 CALM      30.11F
FORT BELVOIR   SUNNY     75  63  65 S5        30.12S
QUANTICO       MOSUNNY   76  65  68 S6        30.12S
FREDERICKSBRG* SUNNY     77  65  65 SW10G16   30.11S
STAFFORD*      SUNNY     76  65  67 W5        30.15S
WARRENTON      SUNNY     75  67  77 SW3       30.11F
CULPEPER*      SUNNY    N/A N/A N/A SW5       30.12S
MANASSAS*      SUNNY     72  63  73 CALM      30.12S
LEESBURG*      SUNNY     73  63  68 CALM      30.11F
WINCHESTER     SUNNY     73  59  60 S6        30.12S
$$

VAZ048-049-060>072-079>083-311500-
CENTRAL AND SOUTH CENTRAL VIRGINIA...AND NORTH CENTRAL NORTH CAROLINA

CITY           SKY/WX    TMP DP  RH WIND       PRES   REMARKS
RICHMOND       PTSUNNY   77  65  66 S9        30.13S
CHESTERFIELD*  MOSUNNY  N/A N/A N/A S5        30.14F
HANOVER        SUNNY     75  64  68 CALM      30.14S
TAPPAHANNOCK*  SUNNY     76  62  61 S7        30.14S
CHARLOTTSVILLE SUNNY     73  60  63 VRB3      30.12S
ORANGE*        SUNNY     75  63  64 S6        30.13S
LOUISA*        SUNNY     75  64  69 SW7       30.12S
FARMVILLE*     MOSUNNY   75  64  69 CALM      30.11S
SOUTH HILL*    MOSUNNY   79  72  78 S5        30.19S
ROANOKE RAPIDS NOT AVBL
RALEIGH        CLOUDY    75  67  76 S5        30.14R
$$

VAZ088>098-311500-
SOUTHEAST VIRGINIA

CITY           SKY/WX    TMP DP  RH WIND       PRES   REMARKS
NORFOLK        MOSUNNY   78  63  59 S5        30.14S
VIRGINIA BEACH PTSUNNY   78  64  61 S7        30.13S
NORFOLK NAVAL  MOSUNNY   80  62  54 S3        30.15S
WEST POINT*    SUNNY     79  65  62 S5        30.15S
NEWPORT NEWS   SUNNY     82  65  56 VRB6      30.14R
LANGLEY AFB    SUNNY     78  65  63 S8        30.13S
FORT EUSTIS    SUNNY     78  66  68 S7        30.12S
WILLIAMSBURG*  MOSUNNY   79  68  69 S6        30.14S
FRANKLIN*      PTSUNNY   77  64  65 S5        30.14S
WAKEFIELD      MOSUNNY   77  66  68 SE5       30.14R
$$

VAZ020-022-025-037-045-311500-
WESTERN AND SOUTHWEST VIRGINIA

CITY           SKY/WX    TMP DP  RH WIND       PRES   REMARKS
STAUNTON*      SUNNY     72  58  62 SW5       30.16F
HOT SPRINGS VA SUNNY     61  53  75 W8        30.25S
LYNCHBURG      SUNNY     74  62  66 CALM      30.16R
DANVILLE       PTSUNNY   74  64  71 CALM      30.14S
MARTINSVILLE   MOSUNNY   75  63  64 CALM      30.17S
ROANOKE        PTSUNNY   71  58  63 CALM      30.17S
BLACKSBURG     MOSUNNY   68  61  77 CALM        N/A
DUBLIN*        MOSUNNY   67  59  75 CALM      30.21R
MARION*        PTSUNNY   67  57  69 E3        30.22S
HILLSVILLE*    PTSUNNY   64  57  77 CALM      30.21S
RICHLANDS*     PTSUNNY   69  61  75 CALM      30.19F
WISE*          MOSUNNY   70  55  60 NE5       30.20F
ABINGDON*      PTSUNNY   69  59  70 E8        30.17F
$$

MDZ021>025-VAZ099-100-311500-
SOUTHERN MARYLAND AND THE DELMARVA PENINSULA

CITY           SKY/WX    TMP DP  RH WIND       PRES   REMARKS
PATUXENT RIVER MOSUNNY   76  64  66 SW10      30.12S
BAY BRIDGE APT   N/A     75  63  64 SW6       30.11S
LEONARDTOWN    SUNNY     75  63  64 SW9       30.14S
DOVER          SUNNY     77  66  68 S9        30.11S
GEORGETOWN     SUNNY     77  66  68 S10       30.14R
EASTON         SUNNY     77  66  69 SW10      30.16R
CAMBRIDGE      SUNNY     79  64  61 SW6       30.12S
SALISBURY      SUNNY     79  65  62 SW6       30.13S
OCEAN CITY     MOSUNNY   77  66  68 W8        30.14S
WALLOPS ISLAND PTSUNNY   80  66  62 VRB6      30.14S
ACCOMACK*        N/A     77  63  61 S8        30.14R
$$

NCZ012>017-030>032-311500-
EASTERN NORTH CAROLINA

CITY           SKY/WX    TMP DP  RH WIND       PRES   REMARKS
ELIZABETH CITY CLOUDY    78  66  66 SE6       30.14S
AHOSKIE*       PTSUNNY   75  66  73 SE6       30.15R
EDENTON*       CLOUDY    77  67  69 E6        30.14S
CURRITUCK*     CLOUDY    78  67  70 CALM      30.15S
KILL DEVIL HLS CLOUDY    78  65  64 E6        30.13S
MANTEO         NOT AVBL
CAPE HATTERAS  CLOUDY    82  64  54 E7        30.13S
GOLDSBORO      PTSUNNY   74  73  96 E6        30.11S
WASHINGTON     CLOUDY    75  66  75 E5        30.14S
GREENVILLE     PTSUNNY   77  68  73 E3        30.15S
NEW BERN       CLOUDY    82  69  64 E7        30.13S
WILMINGTON     CLOUDY    82  68  62 E10       30.10R
$$

VAZ048-311500-
ELSEWHERE

CITY           SKY/WX    TMP DP  RH WIND       PRES   REMARKS
HARRISBURG PA  SUNNY     71  62  73 CALM      30.09F
BALTIMORE      MOSUNNY   75  60  59 VRB3      30.10S
ANNAPOLIS      MOSUNNY   76  62  62 SW5       30.11R
ANDREWS AFB    SUNNY     77  63  61 W9        30.11S
WILMINGTON DE  SUNNY     75  64  68 S7        30.11F
PHILADELPHIA   MOSUNNY   76  62  62 SW9       30.11S
WILDWOOD NJ*   SUNNY     77  63  61 SW9       30.14S
ATLANTIC CITY  SUNNY     76  63  64 SW9       30.12F
HENDERSON NC   CLOUDY    72  67  84 CALM      30.15R
GREENSBORO     PTSUNNY   73  65  75 CALM      30.14S
ROCKY MOUNT    PTSUNNY   75  68  78 E3        30.14R
FAYETTEVILLE   CLOUDY    77  69  76 VRB3      30.11S
CHARLOTTE      CLOUDY    75  65  70 SE5       30.12S
$$

VAZ100-311500-
MARINE

STATION/POSITION TIME  TEMP    WIND        PRES    WAVE   SWELL
                       AIR SEA DIR/SP/G            HT/PER HT/PER
                 (UTC) (F)     (DEG/KT/KT) (MB)    (FT/S) (FT/S)
44066 TX TWR #4  1400   73 74  260/  6/  8 1020.3R   4/ 8   3/ 8
CAPE MAY NJ      1400   73 75  210/  8/  9 1019.9R
LEWES DE         1400   75 71  240/  6/  9 1019.9S
15NM E FENWICK I 1400   74 73              1020.5R   3/ 8
OCEAN-CITY-INLET 1400   74 72  230/  9/ 10 1020.0S
WACHAPREAGUE VA  1400   77 77  210/  7/ 11 1020.3S
THOMAS POINT MD  1400   73 77  200/  9/ 10 1020.2R
GOOSES REEF MD   1400   74     250/ 10/ 14 1020.1S
COVE POINT MD    1400   74     230/ 12/ 14 1019.6S
SOLOMONS ISLAND  1400      79                N/A
BISHOPS HEAD MD  1400   74 75  240/ 12/ 14 1019.7S
PINEY POINT MD   1400          230/  4/  5   N/A
POTOMAC MD       1400   74     240/  8/ 10 1019.4S
CAMBRIDGE MD     1400   76 78  220/  6/  9 1019.6S
LEWISETTA VA     1400   75 77  260/ 11/ 15 1019.8S
RAPPAHANNOCK LGT 1400          190/ 10/ 12 1020.9S
STINGRAY PT      1400   76     210/  6/  8 1021.0R
YORK RVR RNG VA  1400   75     210/  9/ 11 1019.9S
YORKTOWN VA      1400   76 79  190/  7/  9 1020.1S
JAMESTOWN VA     1400   74     230/  8/ 10   N/A
DOMINION TERM VA 1400   76     190/  5/  7 1020.5S
KIPTOPEKE VA     1400      80  200/  7/  9   N/A
CHES BAY BRIDGE  1400   76 77  200/  6/  7 1020.0R
CAPE HENRY VA    1400   77     200/  4/  7 1019.3S
WILLOUBY STN VA  1400          200/  5/  6 1019.8R
S CRANEY ISL VA  1400          200/  3/  5 1020.5S
CAPE HENRY BUOY  1300      75                N/A     2/ 7
1ST LANDING BUOY 1400   76     220/  6/  8 1020.2S
CAPE CHARLES BUO 1400      75                N/A     2/ 7
OFFSHORE WE BUOY 1400      78                N/A     2/ 7
64NM E OF VA BCH 1400   76 78  150/  2/  4 1020.4R   3/ 7   3/ 7
DUCK PIER NC     1400   78 77  110/  4/  5 1020.0S
44056 DUCK FRF   1400                        N/A     2/ 7
OREGON INLET NC  1400   78 78   80/  5/  6 1020.5R
HATTERAS NC      1400   79 79   80/  7/ 10 1020.7S
DIAMOND SHLS NC  1400          VRB  8/ 10  1020.0R   3/ 7   3/ 7
CAPE LOOKOUT NC  1300   80      80/ 13/ 14 1019.6R
$$



USA.gov is the U.S. government's official web portal to all federal, state and local government web resources and services.